QPF
0.00 0.00 0.00 0.00 0.00 0.00 0.00 0.00 0.00 0.00 0.00 0.00 0.00 0.00 0.00 0.00 0.01 0.01 0.04 0.03 0.01 0.01 0.02 0.02 0.03 0.05 0.06 0.06 0.06 0.04 0.03 0.02 0.01 0.01 0.02 0.01 0.01 0.01 0.02 0.02 0.02 0.03 0.04 0.04
0.00 0.00 0.00 0.00 0.00 0.00 0.00 0.00 0.00 0.00 0.00 0.00 0.00 0.01 0.00 0.00 0.01 0.01 0.01 0.01 0.01 0.01 0.01 0.02 0.04 0.07 0.09 0.08 0.06 0.03 0.03 0.03 0.02 0.02 0.02 0.02 0.02 0.03 0.04 0.03 0.03 0.04 0.05 0.06
0.00 0.00 0.00 0.00 0.00 0.00 0.00 0.00 0.00 0.00 0.00 0.01 0.01 0.01 0.00 0.01 0.01 0.00 0.01 0.01 0.01 0.01 0.02 0.04 0.08 0.14 0.12 0.06 0.04 0.03 0.02 0.02 0.03 0.02 0.03 0.03 0.03 0.02 0.04 0.05 0.05 0.04 0.03 0.05
0.00 0.00 0.00 0.00 0.00 0.00 0.00 0.00 0.00 0.00 0.00 0.01 0.01 0.00 0.00 0.01 0.00 0.00 0.00 0.00 0.00 0.01 0.02 0.05 0.09 0.08 0.05 0.03 0.04 0.03 0.02 0.01 0.02 0.03 0.04 0.04 0.03 0.02 0.03 0.04 0.04 0.03 0.03 0.04
0.00 0.00 0.00 0.00 0.00 0.00 0.00 0.00 0.00 0.00 0.00 0.00 0.00 0.00 0.00 0.00 0.00 0.00 0.00 0.00 0.00 0.01 0.01 0.01 0.02 0.02 0.03 0.04 0.03 0.02 0.02 0.02 0.02 0.03 0.04 0.04 0.03 0.04 0.04 0.05 0.05 0.04 0.04 0.04
0.00 0.00 0.00 0.00 0.00 0.00 0.00 0.00 0.00 0.00 0.00 0.00 0.00 0.00 0.00 0.00 0.00 0.00 0.00 0.01 0.01 0.01 0.01 0.01 0.03 0.07 0.06 0.05 0.03 0.03 0.02 0.02 0.03 0.04 0.05 0.05 0.05 0.05 0.06 0.07 0.05 0.04 0.05 0.05
0.00 0.00 0.00 0.00 0.00 0.00 0.00 0.00 0.00 0.00 0.00 0.00 0.00 0.00 0.00 0.00 0.00 0.00 0.00 0.01 0.01 0.01 0.01 0.03 0.05 0.06 0.05 0.04 0.04 0.04 0.04 0.03 0.03 0.03 0.04 0.05 0.06 0.06 0.07 0.07 0.07 0.07 0.07 0.06
0.00 0.00 0.00 0.00 0.00 0.00 0.00 0.00 0.00 0.00 0.00 0.00 0.00 0.00 0.00 0.00 0.00 0.00 0.01 0.01 0.01 0.01 0.01 0.04 0.04 0.04 0.04 0.04 0.07 0.06 0.05 0.03 0.02 0.02 0.03 0.05 0.06 0.05 0.06 0.06 0.06 0.08 0.10 0.12
0.00 0.00 0.00 0.00 0.00 0.00 0.00 0.00 0.00 0.00 0.00 0.00 0.00 0.00 0.00 0.00 0.00 0.00 0.01 0.01 0.01 0.01 0.01 0.04 0.02 0.02 0.03 0.06 0.08 0.05 0.04 0.03 0.02 0.03 0.05 0.05 0.05 0.06 0.07 0.06 0.06 0.08 0.11 0.15
0.00 0.00 0.00 0.00 0.00 0.00 0.00 0.00 0.00 0.00 0.00 0.00 0.00 0.00 0.00 0.00 0.00 0.00 0.00 0.01 0.01 0.01 0.01 0.02 0.02 0.02 0.03 0.03 0.04 0.04 0.07 0.08 0.07 0.07 0.07 0.08 0.09 0.10 0.09 0.08 0.08 0.08 0.07 0.08
0.00 0.00 0.00 0.00 0.00 0.00 0.00 0.00 0.00 0.00 0.00 0.00 0.00 0.00 0.00 0.01 0.01 0.00 0.00 0.01 0.02 0.02 0.02 0.01 0.01 0.02 0.03 0.04 0.05 0.08 0.11 0.14 0.10 0.10 0.10 0.11 0.16 0.17 0.14 0.12 0.11 0.09 0.07 0.06
0.00 0.00 0.00 0.00 0.00 0.00 0.00 0.00 0.00 0.00 0.00 0.00 0.00 0.00 0.00 0.01 0.01 0.00 0.01 0.02 0.02 0.02 0.01 0.01 0.01 0.01 0.03 0.04 0.05 0.06 0.08 0.14 0.13 0.09 0.11 0.14 0.15 0.15 0.13 0.13 0.12 0.09 0.07 0.06
0.00 0.00 0.00 0.00 0.00 0.00 0.00 0.00 0.00 0.00 0.00 0.00 0.00 0.00 0.01 0.01 0.01 0.01 0.02 0.03 0.02 0.01 0.01 0.02 0.02 0.02 0.03 0.04 0.04 0.04 0.04 0.10 0.16 0.12 0.16 0.18 0.16 0.16 0.16 0.12 0.10 0.09 0.08 0.07
0.00 0.00 0.00 0.00 0.00 0.00 0.00 0.00 0.00 0.00 0.00 0.00 0.00 0.00 0.01 0.01 0.01 0.01 0.02 0.02 0.02 0.02 0.02 0.04 0.04 0.05 0.07 0.08 0.06 0.04 0.03 0.06 0.12 0.13 0.16 0.18 0.16 0.14 0.11 0.10 0.10 0.10 0.10 0.09
0.00 0.00 0.00 0.00 0.00 0.00 0.00 0.00 0.00 0.00 0.00 0.00 0.00 0.00 0.00 0.01 0.00 0.01 0.02 0.02 0.01 0.02 0.02 0.04 0.08 0.08 0.07 0.08 0.08 0.05 0.03 0.04 0.06 0.07 0.11 0.12 0.11 0.09 0.07 0.07 0.08 0.08 0.09 0.09
0.00 0.00 0.00 0.00 0.00 0.00 0.00 0.00 0.00 0.00 0.00 0.00 0.00 0.00 0.00 0.01 0.01 0.01 0.02 0.02 0.02 0.02 0.02 0.03 0.06 0.09 0.07 0.05 0.05 0.03 0.02 0.03 0.04 0.04 0.04 0.05 0.06 0.04 0.04 0.04 0.04 0.05 0.06 0.06
0.00 0.00 0.00 0.00 0.00 0.00 0.00 0.00 0.00 0.00 0.00 0.00 0.00 0.00 0.00 0.00 0.01 0.01 0.02 0.02 0.03 0.03 0.02 0.03 0.04 0.04 0.04 0.02 0.02 0.01 0.02 0.02 0.02 0.02 0.03 0.03 0.03 0.03 0.04 0.03 0.02 0.05 0.09 0.08
0.00 0.00 0.00 0.00 0.00 0.00 0.00 0.00 0.00 0.00 0.00 0.00 0.00 0.00 0.00 0.00 0.00 0.01 0.02 0.02 0.03 0.03 0.04 0.04 0.04 0.03 0.02 0.02 0.02 0.02 0.03 0.03 0.02 0.02 0.02 0.03 0.02 0.02 0.02 0.02 0.01 0.02 0.04 0.05
0.00 0.00 0.00 0.00 0.00 0.00 0.01 0.01 0.01 0.00 0.00 0.00 0.00 0.00 0.00 0.00 0.01 0.02 0.02 0.04 0.04 0.06 0.06 0.06 0.04 0.03 0.02 0.02 0.02 0.02 0.02 0.03 0.03 0.02 0.02 0.02 0.02 0.02 0.01 0.01 0.02 0.04 0.05 0.05
0.00 0.00 0.00 0.00 0.00 0.00 0.00 0.01 0.01 0.01 0.01 0.02 0.01 0.01 0.00 0.01 0.01 0.01 0.02 0.04 0.06 0.08 0.09 0.07 0.04 0.03 0.02 0.02 0.02 0.02 0.02 0.03 0.03 0.02 0.04 0.04 0.04 0.03 0.03 0.04 0.05 0.05 0.05 0.05
0.01 0.00 0.00 0.00 0.00 0.00 0.00 0.00 0.00 0.01 0.01 0.01 0.02 0.01 0.01 0.01 0.01 0.02 0.04 0.08 0.07 0.07 0.08 0.06 0.05 0.04 0.03 0.02 0.02 0.02 0.03 0.03 0.04 0.04 0.05 0.05 0.05 0.05 0.06 0.06 0.06 0.05 0.06 0.05
0.01 0.01 0.00 0.00 0.00 0.00 0.00 0.00 0.01 0.01 0.01 0.01 0.02 0.02 0.02 0.02 0.02 0.03 0.03 0.04 0.03 0.04 0.05 0.05 0.05 0.04 0.03 0.02 0.03 0.03 0.02 0.02 0.03 0.03 0.03 0.04 0.05 0.06 0.08 0.07 0.06 0.07 0.10 0.08
0.01 0.00 0.00 0.01 0.01 0.01 0.01 0.01 0.01 0.01 0.01 0.01 0.01 0.02 0.03 0.03 0.03 0.02 0.02 0.02 0.03 0.03 0.03 0.04 0.04 0.04 0.03 0.03 0.02 0.02 0.02 0.03 0.03 0.04 0.05 0.05 0.06 0.07 0.08 0.06 0.05 0.05 0.05 0.05
0.02 0.01 0.02 0.02 0.03 0.03 0.03 0.02 0.02 0.02 0.02 0.02 0.02 0.03 0.03 0.03 0.03 0.02 0.01 0.02 0.02 0.03 0.04 0.04 0.05 0.04 0.03 0.03 0.02 0.02 0.03 0.04 0.05 0.05 0.04 0.04 0.04 0.05 0.07 0.06 0.05 0.05 0.05 0.05
0.03 0.02 0.03 0.03 0.03 0.04 0.03 0.03 0.03 0.04 0.03 0.03 0.04 0.03 0.03 0.03 0.02 0.02 0.03 0.03 0.04 0.04 0.04 0.03 0.04 0.04 0.04 0.05 0.05 0.04 0.04 0.04 0.04 0.04 0.04 0.05 0.04 0.04 0.04 0.04 0.05 0.06 0.08 0.08
0.02 0.02 0.03 0.03 0.03 0.03 0.04 0.03 0.03 0.05 0.05 0.05 0.05 0.04 0.05 0.05 0.04 0.03 0.03 0.03 0.03 0.04 0.04 0.04 0.04 0.05 0.05 0.06 0.06 0.06 0.06 0.07 0.06 0.05 0.05 0.04 0.03 0.03 0.02 0.03 0.03 0.04 0.04 0.05
MSLP
1013.16 1013.98 1014.62 1015.04 1015.25 1015.29 1015.23 1015.11 1015.00 1014.91 1014.85 1014.82 1014.79 1014.75 1014.69 1014.59 1014.49 1014.39 1014.30 1014.26 1014.25 1014.28 1014.34 1014.41 1014.48 1014.57 1014.67 1014.80 1014.97 1015.20 1015.48 1015.80 1016.15 1016.48 1016.78 1017.01 1017.17 1017.25 1017.27 1017.24 1017.22 1017.23 1017.28 1017.39
1013.70 1014.41 1014.92 1015.24 1015.40 1015.45 1015.46 1015.46 1015.48 1015.52 1015.56 1015.56 1015.50 1015.35 1015.12 1014.84 1014.53 1014.24 1014.01 1013.87 1013.82 1013.84 1013.93 1014.04 1014.16 1014.28 1014.40 1014.53 1014.69 1014.91 1015.20 1015.54 1015.92 1016.31 1016.66 1016.95 1017.14 1017.23 1017.24 1017.20 1017.15 1017.11 1017.14 1017.23
1013.96 1014.50 1014.88 1015.11 1015.26 1015.38 1015.52 1015.69 1015.91 1016.12 1016.28 1016.32 1016.21 1015.94 1015.52 1014.99 1014.44 1013.93 1013.52 1013.25 1013.14 1013.16 1013.29 1013.47 1013.66 1013.84 1014.00 1014.16 1014.34 1014.57 1014.88 1015.25 1015.67 1016.11 1016.52 1016.85 1017.09 1017.20 1017.22 1017.17 1017.09 1017.03 1017.03 1017.11
1013.97 1014.34 1014.59 1014.76 1014.93 1015.15 1015.47 1015.88 1016.32 1016.73 1017.02 1017.11 1016.95 1016.52 1015.87 1015.08 1014.23 1013.46 1012.84 1012.42 1012.23 1012.24 1012.41 1012.66 1012.94 1013.21 1013.45 1013.67 1013.90 1014.17 1014.51 1014.92 1015.38 1015.87 1016.33 1016.71 1016.99 1017.14 1017.17 1017.12 1017.03 1016.97 1016.95 1017.02
1013.84 1014.04 1014.17 1014.30 1014.53 1014.89 1015.41 1016.07 1016.76 1017.38 1017.80 1017.92 1017.69 1017.10 1016.20 1015.11 1013.97 1012.90 1012.04 1011.46 1011.17 1011.15 1011.35 1011.67 1012.05 1012.42 1012.75 1013.06 1013.35 1013.68 1014.06 1014.52 1015.03 1015.55 1016.06 1016.49 1016.81 1016.99 1017.05 1017.03 1016.95 1016.89 1016.87 1016.92
1013.68 1013.73 1013.76 1013.88 1014.17 1014.68 1015.42 1016.32 1017.24 1018.04 1018.58 1018.72 1018.41 1017.65 1016.51 1015.12 1013.67 1012.32 1011.22 1010.45 1010.05 1009.99 1010.20 1010.59 1011.05 1011.52 1011.95 1012.35 1012.72 1013.10 1013.54 1014.03 1014.58 1015.15 1015.69 1016.16 1016.52 1016.74 1016.84 1016.84 1016.79 1016.74 1016.73 1016.80
1013.58 1013.49 1013.45 1013.57 1013.93 1014.59 1015.52 1016.61 1017.73 1018.68 1019.30 1019.45 1019.05 1018.13 1016.77 1015.12 1013.40 1011.79 1010.46 1009.52 1009.00 1008.88 1009.09 1009.51 1010.03 1010.58 1011.10 1011.57 1012.01 1012.46 1012.93 1013.46 1014.03 1014.63 1015.20 1015.70 1016.09 1016.35 1016.48 1016.52 1016.51 1016.49 1016.51 1016.59
1013.53 1013.36 1013.27 1013.40 1013.84 1014.60 1015.67 1016.91 1018.16 1019.21 1019.87 1020.00 1019.53 1018.48 1016.94 1015.10 1013.16 1011.35 1009.84 1008.76 1008.12 1007.94 1008.11 1008.54 1009.10 1009.70 1010.27 1010.79 1011.28 1011.76 1012.27 1012.82 1013.40 1014.01 1014.59 1015.11 1015.52 1015.81 1015.98 1016.05 1016.07 1016.09 1016.16 1016.28
1013.51 1013.29 1013.20 1013.35 1013.83 1014.67 1015.81 1017.13 1018.43 1019.51 1020.18 1020.28 1019.75 1018.61 1016.98 1015.02 1012.96 1011.03 1009.41 1008.22 1007.51 1007.25 1007.38 1007.78 1008.33 1008.93 1009.52 1010.07 1010.58 1011.08 1011.59 1012.14 1012.73 1013.33 1013.91 1014.43 1014.85 1015.15 1015.34 1015.44 1015.50 1015.57 1015.67 1015.84
1013.44 1013.23 1013.16 1013.34 1013.84 1014.70 1015.85 1017.16 1018.44 1019.49 1020.12 1020.19 1019.63 1018.46 1016.81 1014.83 1012.76 1010.81 1009.16 1007.92 1007.16 1006.86 1006.93 1007.28 1007.79 1008.36 1008.92 1009.46 1009.96 1010.45 1010.96 1011.50 1012.07 1012.66 1013.22 1013.72 1014.13 1014.43 1014.63 1014.75 1014.84 1014.93 1015.07 1015.29
1013.26 1013.11 1013.08 1013.29 1013.80 1014.63 1015.72 1016.94 1018.14 1019.10 1019.65 1019.68 1019.11 1017.99 1016.40 1014.50 1012.52 1010.65 1009.06 1007.86 1007.09 1006.75 1006.77 1007.05 1007.49 1008.00 1008.51 1009.01 1009.48 1009.96 1010.44 1010.97 1011.52 1012.08 1012.61 1013.09 1013.47 1013.76 1013.94 1014.06 1014.16 1014.27 1014.44 1014.70
1012.94 1012.89 1012.93 1013.17 1013.67 1014.42 1015.40 1016.48 1017.52 1018.35 1018.81 1018.79 1018.25 1017.20 1015.75 1014.02 1012.22 1010.52 1009.05 1007.94 1007.21 1006.86 1006.84 1007.05 1007.41 1007.84 1008.29 1008.74 1009.18 1009.62 1010.09 1010.60 1011.13 1011.66 1012.16 1012.61 1012.96 1013.22 1013.38 1013.48 1013.57 1013.68 1013.87 1014.15
1012.55 1012.62 1012.75 1013.02 1013.47 1014.13 1014.95 1015.84 1016.68 1017.34 1017.68 1017.61 1017.11 1016.18 1014.90 1013.40 1011.84 1010.35 1009.08 1008.10 1007.45 1007.12 1007.06 1007.22 1007.50 1007.86 1008.25 1008.65 1009.05 1009.48 1009.95 1010.44 1010.96 1011.47 1011.95 1012.36 1012.68 1012.90 1013.03 1013.10 1013.16 1013.27 1013.45 1013.74
1012.19 1012.39 1012.60 1012.89 1013.28 1013.82 1014.45 1015.12 1015.74 1016.20 1016.41 1016.29 1015.82 1015.01 1013.93 1012.67 1011.37 1010.14 1009.08 1008.26 1007.71 1007.41 1007.34 1007.46 1007.68 1007.98 1008.32 1008.69 1009.09 1009.52 1009.99 1010.49 1011.01 1011.52 1011.98 1012.37 1012.66 1012.84 1012.94 1012.99 1013.03 1013.10 1013.27 1013.56
1011.99 1012.30 1012.58 1012.87 1013.20 1013.58 1014.01 1014.45 1014.83 1015.08 1015.14 1014.95 1014.50 1013.81 1012.91 1011.90 1010.85 1009.86 1009.02 1008.35 1007.90 1007.66 1007.60 1007.68 1007.88 1008.14 1008.46 1008.82 1009.23 1009.69 1010.19 1010.72 1011.26 1011.78 1012.24 1012.62 1012.90 1013.06 1013.14 1013.16 1013.18 1013.24 1013.39 1013.67
1012.08 1012.47 1012.77 1013.03 1013.26 1013.49 1013.71 1013.91 1014.05 1014.10 1014.00 1013.74 1013.30 1012.69 1011.95 1011.13 1010.30 1009.53 1008.86 1008.35 1007.99 1007.80 1007.76 1007.84 1008.02 1008.28 1008.61 1008.99 1009.44 1009.94 1010.48 1011.06 1011.64 1012.18 1012.66 1013.05 1013.33 1013.50 1013.58 1013.60 1013.61 1013.67 1013.81 1014.07
1012.48 1012.89 1013.19 1013.39 1013.51 1013.57 1013.59 1013.56 1013.48 1013.34 1013.09 1012.74 1012.29 1011.73 1011.10 1010.43 1009.77 1009.16 1008.64 1008.23 1007.96 1007.81 1007.79 1007.89 1008.08 1008.36 1008.72 1009.15 1009.65 1010.22 1010.82 1011.45 1012.08 1012.66 1013.17 1013.59 1013.89 1014.08 1014.19 1014.24 1014.27 1014.34 1014.48 1014.73
1013.16 1013.54 1013.78 1013.89 1013.88 1013.78 1013.62 1013.40 1013.13 1012.81 1012.43 1012.01 1011.52 1010.98 1010.41 1009.84 1009.28 1008.78 1008.35 1008.03 1007.81 1007.70 1007.71 1007.84 1008.06 1008.38 1008.79 1009.28 1009.85 1010.48 1011.15 1011.84 1012.51 1013.14 1013.68 1014.14 1014.48 1014.72 1014.88 1014.98 1015.07 1015.18 1015.35 1015.61
1013.97 1014.27 1014.42 1014.41 1014.27 1014.03 1013.72 1013.34 1012.93 1012.48 1012.01 1011.51 1010.99 1010.46 1009.92 1009.39 1008.90 1008.45 1008.08 1007.79 1007.60 1007.53 1007.57 1007.72 1007.99 1008.36 1008.83 1009.39 1010.03 1010.72 1011.45 1012.18 1012.90 1013.56 1014.15 1014.64 1015.04 1015.34 1015.57 1015.75 1015.91 1016.09 1016.31 1016.60
1014.75 1014.93 1014.96 1014.83 1014.58 1014.22 1013.80 1013.32 1012.82 1012.29 1011.76 1011.23 1010.69 1010.15 1009.62 1009.11 1008.64 1008.22 1007.86 1007.59 1007.42 1007.37 1007.44 1007.63 1007.94 1008.37 1008.90 1009.53 1010.22 1010.96 1011.73 1012.50 1013.24 1013.92 1014.54 1015.07 1015.52 1015.90 1016.21 1016.48 1016.74 1017.00 1017.29 1017.62
1015.33 1015.38 1015.28 1015.04 1014.70 1014.27 1013.79 1013.27 1012.73 1012.19 1011.65 1011.12 1010.58 1010.05 1009.53 1009.03 1008.55 1008.13 1007.78 1007.51 1007.35 1007.31 1007.41 1007.64 1008.00 1008.48 1009.06 1009.74 1010.47 1011.25 1012.04 1012.82 1013.56 1014.25 1014.88 1015.44 1015.94 1016.38 1016.77 1017.14 1017.50 1017.85 1018.23 1018.62
1015.60 1015.52 1015.31 1014.99 1014.60 1014.14 1013.66 1013.16 1012.65 1012.15 1011.65 1011.15 1010.65 1010.14 1009.63 1009.13 1008.66 1008.23 1007.87 1007.60 1007.45 1007.43 1007.55 1007.81 1008.22 1008.74 1009.37 1010.08 1010.84 1011.63 1012.42 1013.18 1013.91 1014.59 1015.22 1015.79 1016.32 1016.81 1017.28 1017.73 1018.19 1018.64 1019.10 1019.56
1015.55 1015.35 1015.07 1014.71 1014.30 1013.87 1013.43 1013.00 1012.58 1012.16 1011.74 1011.31 1010.86 1010.40 1009.91 1009.43 1008.96 1008.53 1008.17 1007.91 1007.76 1007.76 1007.90 1008.20 1008.64 1009.20 1009.85 1010.58 1011.35 1012.13 1012.90 1013.64 1014.33 1014.98 1015.59 1016.16 1016.70 1017.23 1017.76 1018.28 1018.82 1019.36 1019.90 1020.43
1015.22 1014.95 1014.62 1014.25 1013.88 1013.51 1013.16 1012.84 1012.53 1012.23 1011.92 1011.59 1011.22 1010.81 1010.37 1009.91 1009.46 1009.04 1008.69 1008.43 1008.30 1008.31 1008.47 1008.80 1009.26 1009.84 1010.51 1011.24 1012.00 1012.76 1013.49 1014.18 1014.84 1015.45 1016.03 1016.58 1017.12 1017.67 1018.24 1018.83 1019.43 1020.04 1020.65 1021.24
1014.74 1014.43 1014.09 1013.75 1013.44 1013.16 1012.93 1012.73 1012.55 1012.38 1012.19 1011.96 1011.68 1011.34 1010.96 1010.54 1010.11 1009.72 1009.38 1009.14 1009.02 1009.05 1009.23 1009.57 1010.04 1010.63 1011.30 1012.02 1012.75 1013.47 1014.17 1014.82 1015.42 1015.99 1016.54 1017.07 1017.61 1018.17 1018.76 1019.39 1020.03 1020.70 1021.36 1022.01
1014.23 1013.91 1013.59 1013.30 1013.07 1012.89 1012.78 1012.70 1012.66 1012.61 1012.53 1012.40 1012.21 1011.95 1011.63 1011.26 1010.87 1010.51 1010.20 1009.98 1009.89 1009.93 1010.12 1010.46 1010.93 1011.51 1012.16 1012.84 1013.54 1014.23 1014.88 1015.49 1016.06 1016.59 1017.11 1017.63 1018.16 1018.72 1019.33 1019.97 1020.65 1021.35 1022.05 1022.74
Thickness
5796 5783 5776 5783 5790 5791 5788 5783 5780 5788 5803 5799 5793 5794 5800 5806 5805 5803 5801 5799 5798 5799 5802 5801 5799 5797 5793 5789 5785 5782 5778 5776 5773 5769 5765 5761 5759 5759 5757 5757 5755 5754 5752 5750
5774 5773 5787 5791 5792 5791 5787 5780 5779 5786 5799 5796 5789 5791 5800 5804 5806 5808 5805 5802 5801 5800 5800 5800 5799 5797 5794 5789 5786 5784 5781 5778 5775 5773 5769 5766 5763 5760 5759 5757 5756 5755 5752 5750
5767 5777 5789 5788 5784 5782 5782 5780 5781 5781 5789 5791 5786 5780 5791 5802 5807 5809 5810 5808 5807 5805 5802 5801 5800 5798 5796 5792 5789 5787 5784 5780 5777 5775 5771 5767 5763 5761 5758 5756 5755 5755 5753 5751
5767 5779 5783 5780 5779 5781 5773 5789 5788 5784 5773 5763 5777 5756 5780 5791 5797 5803 5807 5809 5809 5810 5808 5805 5803 5800 5798 5797 5794 5790 5787 5783 5779 5776 5772 5767 5763 5758 5758 5757 5756 5755 5754 5752
5760 5774 5776 5774 5781 5785 5782 5791 5787 5781 5769 5758 5764 5756 5768 5785 5787 5800 5810 5813 5815 5815 5813 5810 5809 5806 5803 5800 5796 5792 5788 5784 5781 5777 5773 5769 5765 5762 5760 5758 5756 5754 5754 5752
5762 5777 5781 5782 5789 5790 5788 5778 5768 5756 5750 5739 5755 5752 5759 5775 5791 5804 5814 5818 5819 5819 5817 5815 5813 5808 5804 5801 5798 5793 5788 5784 5782 5778 5774 5771 5767 5763 5760 5757 5755 5753 5753 5752
5751 5765 5779 5786 5776 5779 5776 5751 5729 5729 5719 5728 5751 5752 5761 5793 5805 5812 5816 5820 5822 5822 5819 5816 5811 5807 5804 5800 5797 5793 5789 5784 5782 5778 5775 5772 5769 5765 5761 5758 5756 5753 5752 5750
5729 5735 5765 5777 5774 5764 5763 5754 5728 5718 5717 5727 5745 5746 5774 5803 5812 5816 5819 5821 5823 5821 5820 5818 5815 5811 5806 5802 5797 5793 5789 5786 5783 5779 5775 5773 5770 5766 5763 5760 5758 5755 5753 5752
5721 5731 5765 5777 5782 5772 5754 5749 5753 5730 5727 5726 5733 5751 5779 5804 5808 5811 5815 5818 5819 5821 5821 5818 5815 5811 5808 5804 5799 5795 5790 5786 5783 5780 5776 5773 5769 5766 5763 5761 5759 5756 5754 5752
5732 5731 5754 5770 5773 5769 5765 5751 5734 5723 5711 5714 5733 5744 5757 5787 5797 5804 5808 5812 5816 5819 5818 5816 5813 5810 5808 5804 5800 5796 5791 5786 5782 5780 5776 5772 5768 5766 5763 5760 5758 5755 5753 5751
5736 5726 5739 5753 5754 5751 5750 5745 5733 5722 5724 5712 5717 5739 5781 5789 5798 5801 5805 5810 5813 5814 5813 5812 5810 5808 5804 5800 5796 5792 5789 5784 5780 5777 5774 5770 5767 5764 5761 5758 5756 5753 5751 5749
5729 5715 5716 5736 5758 5767 5763 5750 5738 5728 5719 5719 5722 5742 5792 5794 5800 5803 5805 5809 5811 5812 5811 5809 5806 5802 5799 5795 5792 5789 5786 5783 5779 5775 5772 5768 5765 5762 5759 5757 5755 5753 5750 5748
5725 5710 5703 5716 5731 5750 5751 5747 5746 5735 5719 5712 5720 5748 5788 5791 5796 5801 5804 5805 5806 5806 5805 5803 5800 5797 5794 5791 5788 5786 5783 5779 5776 5773 5769 5765 5761 5758 5756 5755 5753 5751 5748 5746
5731 5708 5706 5707 5720 5737 5743 5744 5742 5737 5720 5718 5731 5754 5776 5784 5789 5795 5798 5799 5799 5800 5799 5797 5794 5792 5790 5787 5784 5781 5778 5776 5772 5769 5765 5761 5758 5755 5753 5752 5750 5747 5746 5743
5725 5710 5717 5725 5738 5744 5748 5747 5744 5745 5739 5734 5744 5753 5772 5782 5787 5791 5793 5793 5793 5792 5792 5791 5789 5787 5785 5781 5779 5776 5773 5771 5769 5766 5762 5758 5755 5753 5751 5748 5746 5744 5742 5739
5714 5711 5716 5723 5735 5741 5742 5746 5747 5749 5747 5750 5755 5758 5778 5784 5786 5786 5786 5787 5785 5786 5786 5786 5784 5783 5781 5778 5775 5772 5769 5767 5765 5761 5757 5754 5751 5748 5746 5743 5742 5739 5736 5734
5702 5704 5701 5705 5725 5732 5724 5739 5744 5747 5752 5754 5751 5765 5777 5778 5779 5781 5781 5783 5782 5782 5781 5780 5779 5777 5775 5773 5771 5768 5765 5762 5760 5756 5752 5749 5746 5742 5740 5738 5736 5733 5730 5727
5700 5695 5690 5695 5711 5702 5723 5747 5751 5750 5753 5759 5764 5771 5776 5778 5778 5779 5781 5780 5778 5778 5776 5775 5773 5771 5769 5767 5765 5763 5760 5756 5753 5749 5746 5742 5740 5737 5734 5731 5728 5726 5723 5720
5704 5697 5685 5682 5689 5704 5727 5741 5745 5744 5746 5759 5760 5765 5768 5771 5771 5770 5776 5778 5776 5774 5772 5770 5768 5766 5763 5760 5758 5755 5752 5749 5745 5742 5738 5736 5733 5730 5726 5723 5720 5718 5715 5711
5695 5697 5686 5681 5687 5689 5717 5740 5749 5746 5737 5756 5759 5760 5762 5765 5755 5761 5772 5772 5770 5768 5766 5763 5761 5758 5755 5752 5751 5747 5743 5741 5737 5734 5731 5728 5726 5722 5718 5715 5712 5709 5706 5702
5682 5680 5679 5680 5686 5697 5722 5736 5743 5725 5734 5755 5758 5760 5760 5760 5764 5767 5767 5765 5763 5760 5758 5756 5754 5750 5747 5745 5744 5739 5735 5732 5729 5727 5724 5720 5717 5714 5710 5707 5703 5701 5697 5694
5674 5673 5672 5674 5680 5691 5723 5730 5728 5732 5745 5751 5754 5757 5756 5757 5760 5761 5760 5757 5755 5752 5749 5747 5745 5741 5739 5738 5737 5732 5727 5724 5721 5719 5715 5711 5708 5706 5702 5699 5695 5692 5689 5686
5671 5677 5677 5682 5687 5703 5714 5722 5730 5735 5739 5745 5749 5752 5753 5752 5751 5752 5750 5748 5747 5744 5741 5740 5737 5732 5729 5729 5729 5724 5719 5717 5714 5710 5706 5702 5699 5696 5692 5690 5686 5684 5681 5678
5671 5676 5677 5683 5693 5702 5711 5719 5726 5732 5736 5741 5745 5747 5748 5746 5746 5744 5743 5740 5737 5735 5733 5731 5728 5724 5720 5719 5719 5716 5713 5709 5706 5701 5697 5693 5690 5686 5682 5680 5677 5674 5671 5668
5667 5671 5673 5678 5688 5697 5707 5713 5720 5726 5732 5735 5737 5740 5741 5740 5737 5736 5734 5732 5729 5726 5724 5722 5720 5717 5713 5711 5709 5706 5704 5701 5697 5692 5688 5684 5680 5676 5672 5668 5665 5663 5660 5659
5661 5666 5669 5673 5685 5689 5696 5706 5714 5718 5721 5725 5728 5728 5731 5731 5729 5727 5724 5723 5721 5718 5716 5713 5711 5708 5706 5703 5700 5696 5694 5693 5689 5683 5678 5674 5670 5667 5664 5660 5655 5651 5649 5647